Regional Weather Roundup
Issued by NWS

Home | Current Version | Previous Version | Graphics & Text | Print | Product List | Glossary On
Versions: 1 2 3 4 5 6 7 8 9 10 11 12 13 14 15 16 17 18 19 20 21 22 23 24 25 26 27 28 29 30 31 32 33 34 35 36 37 38 39 40 41 42 43 44 45 46 47 48 49 50
000
ASUS43 KLMK 061810
RWRKY
KENTUCKY REGIONAL WEATHER ROUNDUP
NATIONAL WEATHER SERVICE LOUISVILLE KY
200 PM EDT MON JUL 06 2015

NOTE "FAIR" INDICATES FEW OR NO CLOUDS BELOW 12,000 FEET
WITH NO SIGNIFICANT WEATHER AND/OR OBSTRUCTIONS TO VISIBILITY.

KYZ001>023-026-027-061>063-070>075-061900-
WESTERN AND SOUTH CENTRAL KENTUCKY

CITY           SKY/WX    TMP DP  RH WIND       PRES   REMARKS
PADUCAH        PTSUNNY   84  71  65 S10G17    30.06F
HENDERSON      PTSUNNY   84  72  65 SW12G17   30.04S
OWENSBORO      MOSUNNY   86  73  64 SW12      30.07F HX  93
HOPKINSVILLE   MOSUNNY   84  71  65 SW14      30.10F
BOWLING GREEN  PTSUNNY   83  70  64 S12       30.11F
GLASGOW        PTSUNNY   83  69  64 SW8       30.12F
$$

KYZ024-025-028>034-038-045-046-053-061900-
NORTH CENTRAL KENTUCKY

CITY           SKY/WX    TMP DP  RH WIND       PRES   REMARKS
LOUISVILLE/SDF MOSUNNY   86  67  52 SW12      30.08S
LOUISVILLE/LOU MOSUNNY   84  66  54 SW9       30.09S
FORT KNOX      MOSUNNY   84  69  60 SW9       30.08F
$$

KYZ035>037-039>044-047>052-055>060-089>105-061900-
NORTHEAST KENTUCKY

CITY           SKY/WX    TMP DP  RH WIND       PRES   REMARKS
LEXINGTON      MOSUNNY   82  66  58 SW9       30.11F
COVINGTON      MOSUNNY   82  66  58 VRB5      30.10S
FRANKFORT      PTSUNNY   81  67  62 SW8       30.09F
$$

KYZ054-064>069-076>088-106>120-061900-
SOUTHEAST KENTUCKY

CITY           SKY/WX    TMP DP  RH WIND       PRES   REMARKS
JACKSON        MOSUNNY   77  67  71 CALM      30.15S
LONDON         MOSUNNY   79  65  62 SW7       30.15F
SOMERSET       MOSUNNY   79  64  61 W8        30.14F
MIDDLESBORO    PTSUNNY   82  68  60 W7        30.15S
MONTICELLO     CLEAR     83  72  69 SW6       30.16F
$$




USA.gov is the U.S. government's official web portal to all federal, state and local government web resources and services.